Flag Weather past 2 weeks in Örebro, Sweden

Now
45 °F

Light rain. Overcast.


Feels Like: 38 °F
Forecast: 30 / 39 °F
Wind: 13 mph from Southeast

Location: Orebro Private

Current Time: Nov 24, 2014 at 1:29:51 AM

Latest Report: Nov 24, 2014 at 12:50 AM


Visibility: N/A

Pressure: 30.07 "Hg

Humidity: 81%

Dew point: 39 °F

Location of ÖrebroLocation

Historic Weather in Örebro — Graph

°F

Örebro temperature yesterday

Maximum temperature yesterday: 45 °F (at 6:50 PM)
Minimum temperature yesterday: 36 °F (at 12:20 AM)
Average temperature yesterday: 40 °F

Past Weeks' High & Low Weather Summary

 TemperatureHumidityPressure
High50 °F (Nov 9, 11:20 AM)100% (Nov 9, 12:20 AM)30.48 "Hg (Nov 9, 12:20 AM)
Low32 °F (Nov 22, 6:50 PM)76% (Nov 16, 9:50 PM)29.74 "Hg (Nov 10, 9:20 PM)
Average42 °F94%30.19 "Hg
* Reported Nov 9 12:20 AM — Nov 24 12:20 AM, Örebro, Weather by CustomWeather, © 2014

Note: Actual official high and low records may vary slightly from our data, if they occured in-between our weather recording intervals... More about our weather records

Advertising

Örebro weather history for previous 24 hours

 ConditionsComfort  
Time TempWeatherWind HumidityBarometerVisibility
12:20 AM
Nov 24
45 °FDrizzle. Overcast.14 mph81%30.07 "HgN/A
11:50 PM
Nov 23
45 °FRain. Overcast.14 mph81%30.09 "HgN/A
11:20 PM45 °FOvercast.15 mph81%30.09 "HgN/A
10:20 PM45 °FPassing clouds.14 mph81%30.12 "HgN/A
9:20 PM45 °FPassing clouds.15 mph81%30.15 "HgN/A
8:50 PM45 °FPassing clouds.14 mph81%30.18 "HgN/A
8:20 PM45 °FPassing clouds.15 mph81%30.18 "HgN/A
7:50 PM45 °FPassing clouds.14 mph81%30.21 "HgN/A
7:20 PM45 °FPassing clouds.15 mph81%30.21 "HgN/A
6:50 PM45 °FPassing clouds.13 mph87%30.24 "HgN/A
6:20 PM43 °FPassing clouds.13 mph87%30.24 "HgN/A
5:50 PM43 °FPartly cloudy.9 mph87%30.27 "HgN/A
5:20 PM43 °FMostly cloudy.12 mph87%30.27 "HgN/A
4:50 PM43 °FOvercast.10 mph87%30.27 "HgN/A
4:20 PM43 °FOvercast.8 mph93%30.30 "HgN/A
3:50 PM43 °FOvercast.8 mph93%30.30 "HgN/A
3:20 PM43 °FOvercast.8 mph93%30.30 "HgN/A
2:50 PM43 °FMostly cloudy.9 mph93%30.30 "HgN/A
2:20 PM43 °FBroken clouds.9 mph93%30.33 "HgN/A
1:50 PM41 °FPartly sunny.9 mph100%30.33 "HgN/A
1:20 PM41 °FOvercast.7 mph93%30.33 "HgN/A
12:50 PM41 °FBroken clouds.6 mph93%30.36 "HgN/A
12:20 PM39 °FOvercast.3 mph100%30.36 "HgN/A
11:50 AM39 °FDrizzle. Overcast.3 mph93%30.36 "HgN/A
11:20 AM39 °FMore clouds than sun.3 mph93%30.36 "HgN/A
10:50 AM37 °FMore clouds than sun.3 mph100%30.39 "HgN/A
10:20 AM37 °FMore clouds than sun.3 mph100%30.39 "HgN/A
9:50 AM37 °FLow clouds.3 mph100%30.36 "Hg6 mi
9:20 AM37 °FFog.6 mph100%30.36 "Hg4 mi
8:50 AM37 °FFog.6 mph93%30.36 "Hg5 mi
8:20 AM37 °FLow clouds.3 mph93%30.36 "HgN/A
7:50 AM36 °FLow clouds.3 mph100%30.36 "Hg6 mi
7:20 AM36 °FFog.3 mph100%30.36 "Hg5 mi
6:50 AM36 °FFog.3 mph100%30.36 "Hg6 mi
6:20 AM36 °FLight rain. Passing clouds.5 mph100%30.33 "Hg4 mi
5:50 AM36 °FLight rain. Overcast.5 mph100%30.33 "Hg4 mi
5:20 AM36 °FFog.5 mph100%30.33 "Hg6 mi
4:50 AM36 °FFog.6 mph100%30.36 "Hg5 mi
4:20 AM36 °FFog.2 mph100%30.36 "Hg5 mi
3:50 AM36 °FFog.3 mph100%30.33 "Hg4 mi
3:20 AM36 °FFog.3 mph100%30.36 "Hg4 mi
2:50 AM36 °FFog.2 mph100%30.36 "Hg2 mi
2:20 AM37 °FDense fog.5 mph93%30.36 "Hg1 mi
1:50 AM36 °FDense fog.6 mph100%30.36 "Hg1 mi
1:20 AM36 °FFog.3 mph100%30.36 "Hg1 mi
Weather by CustomWeather, © 2014

See weather overviewHow to use our weather pages